Location: Barben�on
(50.2218°N, 4.2839°E)
Time: 07:14:03
(UTC+00:00)

Daily predictions for brighter satellites

Satellite Brightness Start Highest point End
(mag) Time Altitude Azimuth Time Altitude Azimuth Time Altitude Azimuth
USA 267 3.6 19:42:04 10° ENE 19:48:12 41° SE 19:54:18 10° SSW
IRIDIUM 103 4.5 19:45:44 10° SSE 19:50:49 56° E 19:55:56 10° NNE
Cosmos 1821 Rocket 4.3 19:47:09 10° SSE 19:52:59 49° E 19:58:57 10° NNE
Shenzhou-11 Module 3.6 19:52:27 10° SW 19:53:50 14° S 19:55:13 10° SE
COSMOS 2406 3.4 19:49:10 10° S 19:54:41 50° ESE 20:00:13 10° NE
CZ-2C R/B 3.8 19:51:07 10° NNE 19:55:44 59° ESE 20:00:13 10° S
Cosmos 1743 Rocket 3.8 19:51:31 10° SSW 19:55:58 79° W 20:00:29 10° N
SL-16 R/B 4.1 19:52:24 10° N 19:56:26 19° NE 20:00:28 10° E
Cosmos 2366 rocket 4.3 19:50:39 10° SSW 19:56:53 75° W 20:03:06 10° N
Intercosmos 25 3.6 19:52:28 10° N 19:57:19 59° ENE 20:00:45 10° SSE
Lacrosse 5 3.0 19:54:55 10° WNW 19:59:44 41° N 20:04:33 10° E
ERS-1 Rocket 4.3 19:56:40 10° ESE 20:00:44 25° ENE 20:04:48 10° N
Cosmos 2369 3.9 19:56:30 10° NNW 20:02:14 65° ENE 20:07:55 10° SE
Cosmos 1862 3.3 20:00:10 10° S 20:04:11 70° E 20:08:15 10° NNE
Sich 1 3.4 20:00:53 10° SSE 20:05:08 48° E 20:09:26 10° NNE
Meteor 2-6 Rocket 4.5 20:00:51 10° NNW 20:06:19 73° W 20:11:54 10° S
Cosmos 1818 3.6 20:01:24 10° NW 20:06:54 86° SW 20:12:21 10° SE
BREEZE-M DEB (TANK) 1.8 20:04:18 10° WSW 20:07:51 67° S 20:09:49 10° E
IRIDIUM 106 4.3 20:03:53 10° S 20:09:05 78° E 20:14:20 10° N
Cosmos 2082 Rocket 3.0 20:05:11 10° SSE 20:09:59 29° ESE 20:14:48 10° NE
Cosmos 2278 4.1 20:05:51 10° NNW 20:11:29 54° NE 20:16:44 12° SE
Cosmos 2123 Rocket 4.3 20:05:52 10° N 20:11:55 51° ENE 20:17:58 10° SSE
Cosmos 1500 Rocket 4.4 20:11:11 10° SSW 20:15:24 53° WNW 20:19:40 10° N
Spot 2 Rocket 3.8 20:11:32 10° SE 20:16:30 55° ENE 20:21:29 10° N
Cosmos 2322 Rocket 3.9 20:14:42 10° NNW 20:19:03 22° NE 20:23:24 10° E
Meteor 1-4 Rocket 2.9 20:16:21 10° N 20:19:43 44° ENE 20:22:26 14° SE
Resurs 1-3 4.5 20:15:58 10° S 20:20:14 50° W 20:24:32 10° NNW
Cosmos 2239 Rocket 4.5 20:16:11 10° S 20:22:16 68° E 20:28:23 10° NNE
Cosmos 1184 Rocket 4.2 20:21:02 15° SE 20:22:45 21° E 20:25:20 10° NE
Cosmos 1190 Rocket 4.4 20:17:45 10° S 20:22:45 44° ESE 20:27:46 10° NE
CZ-2C R/B 3.4 20:18:22 10° N 20:23:24 56° WNW 20:28:28 10° SW
Terra 3.2 20:21:08 12° ESE 20:24:37 25° ENE 20:28:28 10° N
USA 234 3.3 20:18:46 11° ESE 20:25:07 89° NNE 20:31:42 10° WNW
Cosmos 407 Rocket 3.6 20:20:26 10° S 20:25:38 56° ESE 20:30:49 10° NNE
Cosmos 1666 Rocket 3.7 20:22:32 10° S 20:26:43 53° E 20:30:57 10° NNE
Cosmos 1238 Rocket 3.9 20:28:02 15° ESE 20:28:42 16° E 20:30:37 10° NE
Meteor 1-27 Rocket 3.9 20:24:29 10° NNW 20:30:26 88° WSW 20:36:23 10° S
MetOp-B 4.2 20:26:06 10° SSE 20:31:29 89° W 20:36:53 10° NNW
Cosmos 2360 Rocket 4.2 20:29:11 10° N 20:33:00 18° NNE 20:36:47 10° ENE
BREEZE-M DEB (TANK) 4.2 20:33:26 10° W 20:36:21 15° WSW 20:38:17 10° SSW
ERBS 3.5 20:34:03 10° W 20:37:15 43° NNW 20:40:27 10° NE
USA 238 DEB 4.4 20:32:51 10° S 20:38:28 30° ESE 20:44:17 10° NE
Cosmos 1805 Rocket 4.1 20:34:07 10° SSW 20:38:30 62° WNW 20:42:57 10° N
USA 238 4.4 20:32:59 10° S 20:38:35 30° ESE 20:44:22 10° ENE
SPOT 5 3.3 20:35:55 17° SE 20:38:49 38° ENE 20:42:52 10° N
Cosmos 1980 Rocket 2.2 20:37:01 10° NNW 20:42:44 78° ENE 20:47:05 18° SE
SPOT 1/Viking Rocket 3.6 20:39:53 14° SSE 20:44:21 76° ENE 20:49:36 10° NNW
Cosmos 2242 Rocket 4.4 20:40:52 10° N 20:44:59 35° ENE 20:47:29 20° SE
Cosmos 1763 Rocket 4.5 20:42:40 10° NNW 20:47:35 36° NE 20:51:08 17° ESE
SL-4 R/B 2.3 20:44:18 10° SW 20:47:56 37° SSE 20:51:20 10° E
Genesis I 3.1 20:44:29 10° NW 20:48:23 82° NE 20:50:44 23° SE
BREEZE-M DEB (TANK) 2.4 20:45:57 10° WSW 20:48:40 75° SSE 20:55:52 10° E
Cosmos 405 Rocket 3.8 20:49:22 22° ESE 20:50:30 26° E 20:53:38 10° NE
ATLAS 5 CENTAUR R/B 3.7 20:46:07 10° WNW 20:51:12 32° WSW 20:56:55 10° S
Cosmos 1140 Rocket 3.4 20:46:04 10° SSW 20:51:16 71° ESE 20:56:31 10° NNE
Cosmos 1023 Rocket 4.4 20:50:31 10° SSW 20:55:47 79° ESE 21:01:06 10° NNE
USA 32 4.1 20:53:02 14° S 20:57:30 64° E 21:02:41 10° NNE
Cosmos 1697 Rocket 3.4 20:52:56 10° NW 20:58:20 49° WSW 21:03:04 13° S
Cosmos 1633 Rocket 3.1 20:55:34 10° S 21:00:00 87° WNW 21:04:28 10° N
Cosmos 1833 Rocket 2.8 20:54:47 10° SSW 21:00:25 81° WNW 21:06:06 10° NNE
Meteor 1-18 Rocket 4.4 21:00:53 10° N 21:06:27 59° ENE 21:09:49 23° SSE
Okean 1-7 3.8 21:02:36 10° N 21:06:40 37° ENE 21:08:30 25° ESE
Cosmos 1867 3.7 21:01:29 10° SSW 21:06:45 54° ESE 21:12:04 10° NE
CENTAUR R/B 3.4 21:04:45 21° SE 21:07:06 27° ESE 21:12:41 10° ENE
Resurs 01 Rocket 3.6 21:06:47 10° SSW 21:10:27 25° W 21:14:09 10° NW
Landsat 7 4.5 21:08:59 14° S 21:13:00 51° W 21:17:39 10° NNW
FALCON 9 DEB 3.4 21:10:19 10° SW 21:13:39 43° SSE 21:15:22 24° E
Meteor 2-4 Rocket 4.4 21:10:37 10° N 21:16:03 42° ENE 21:18:54 24° SE
Cosmos 1515 4.1 21:13:25 10° N 21:17:09 46° ENE 21:18:23 33° SE
deb Kosmos-1763 4.0 21:14:15 12° SSW 21:17:34 87° WNW 21:21:15 10° NNE
Cosmos 44 4.3 21:15:24 10° NNW 21:19:54 38° NE 21:23:09 18° E
Cosmos 676 Rocket 4.0 21:14:51 10° SSW 21:20:09 79° ESE 21:25:32 10° NNE
ATLAS 5 CENTAUR R/B 2.8 21:18:11 10° NNW 21:20:28 34° NE 21:23:25 17° E
Meteor 1-25 Rocket 4.1 21:17:53 15° S 21:22:29 80° E 21:28:07 10° NNE
Cosmos 1470 Rocket 3.5 21:19:31 19° S 21:22:43 89° W 21:27:09 10° N
Cosmos 1934 Rocket 4.4 21:18:31 10° SSW 21:24:50 65° WNW 21:31:12 10° N
Aureole 1 Rocket 4.5 21:19:10 10° SSW 21:26:05 88° WNW 21:34:30 10° NNE
GP-B 3.9 21:22:36 10° N 21:26:55 50° W 21:30:41 13° SSW
USA 267 3.3 21:25:02 10° ENE 21:31:36 82° NNW 21:38:09 10° WSW
NOSS 3-2 (A) 3.4 21:27:07 10° SSW 21:32:45 61° SE 21:39:13 10° NE
Cosmos 921 Rocket 3.2 21:28:52 10° NNW 21:33:04 64° WSW 21:34:51 32° S
NOSS 3-2 (C) 3.7 21:35:51 25° S 21:38:46 44° ESE 21:44:52 10° NE
ERS-1 Rocket 3.4 21:36:09 23° S 21:39:12 55° W 21:44:10 10° NNW
Cosmos 841 Rocket 4.0 21:34:38 10° NNW 21:39:42 48° ENE 21:42:00 29° ESE
SAR-Lupe-2 3.7 21:36:43 10° N 21:40:17 72° WNW 21:41:56 30° SSW
Cosmos 540 Rocket 4.0 21:36:08 10° NNW 21:41:09 47° ENE 21:43:22 29° ESE
SL-16 R/B 2.3 21:35:55 10° NNW 21:41:37 71° ENE 21:44:17 32° SE
Lacrosse 5 1.8 21:38:04 10° WNW 21:43:11 85° NNE 21:45:31 33° ESE
Cosmos 468 Rocket 4.0 21:38:03 10° NNW 21:43:24 83° WSW 21:45:45 34° SSE
Cosmos 1741 Rocket 4.1 21:48:23 35° SSE 21:50:23 56° ESE 21:55:33 10° NNE
Cosmos 1570 Rocket 4.3 21:45:46 10° NNW 21:51:02 60° ENE 21:53:10 35° SE
Cosmos 2219 Rocket 4.0 21:47:50 10° NNW 21:52:17 23° NE 21:56:38 10° E
Cosmos 2208 Rocket 4.4 21:47:55 10° NNW 21:53:08 53° ENE 21:55:11 33° ESE
Cosmos 1814 Rocket 4.4 21:48:25 10° NNW 21:53:30 51° ENE 21:55:32 33° ESE
Cosmos 2082 Rocket 2.8 21:48:11 10° SW 21:53:46 57° NW 21:59:23 10° NNE
Terra 2.4 22:00:02 30° SSW 22:02:05 51° W 22:06:46 10° NNW
Aureole 2 4.5 22:03:02 60° SSW 22:03:37 85° WNW 22:07:36 10° NNE
Cosmos 2322 Rocket 2.2 21:58:16 10° NNW 22:03:59 83° ENE 22:06:13 39° SE
Cosmos 1933 Rocket 4.3 22:01:23 22° SW 22:04:02 50° WNW 22:08:22 10° N
Okean 1 4.5 22:01:54 10° NNW 22:05:39 37° W 22:07:07 27° SW
Cosmos 1238 Rocket 4.2 22:06:54 18° WSW 22:08:06 24° WNW 22:10:36 10° NNW
Cosmos 2100 Rocket 3.9 22:05:35 33° S 22:08:31 79° E 22:14:41 10° NNE
USA 234 4.1 22:06:06 27° S 22:08:37 36° SW 22:14:33 10° WNW
Cosmos 1437 Rocket 3.4 22:06:24 10° NNW 22:10:05 46° W 22:10:50 39° SW
Meteor 1-11 Rocket 4.2 22:09:09 37° SE 22:10:35 45° E 22:16:00 10° NNE
Cosmos 1242 Rocket 3.9 22:08:55 10° N 22:12:05 28° ENE 22:12:07 28° ENE
Cosmos 1869 Rocket 3.5 22:13:02 52° S 22:14:06 88° E 22:18:35 10° N
SPOT 5 4.3 22:15:08 19° SW 22:17:03 26° W 22:20:42 10° NW
Cosmos 2360 Rocket 2.4 22:12:32 10° NNW 22:18:11 63° ENE 22:20:20 37° ESE
MTI 4.0 22:15:45 10° N 22:18:29 64° N 22:18:29 64° N
COSMOS 2428 4.2 22:13:57 10° NNW 22:18:56 29° NE 22:22:37 16° E
ATLAS 3B R/B 3.2 22:21:12 34° SE 22:21:53 35° ESE 22:27:48 10° NE
Geosat 3.9 22:20:48 48° SSE 22:22:13 78° WSW 22:27:17 10° NNW
Iridium 4 Rocket 3.0 22:21:45 54° SSW 22:22:42 79° W 22:26:57 10° N
Cosmos 2173 Rocket 3.9 22:21:11 34° S 22:24:05 87° W 22:30:16 10° N
Cosmos 1500 3.2 22:25:10 65° WSW 22:25:29 70° W 22:29:14 10° N
CRYOSAT 2 4.4 22:20:57 10° N 22:25:49 65° E 22:26:46 53° SE
Cosmos 1980 Rocket 4.1 22:22:04 10° NW 22:26:05 20° W 22:28:51 14° SW
SL-4 R/B 1.7 22:23:35 10° W 22:27:13 78° NW 22:27:13 78° NW
ALOS 2 3.3 22:27:44 38° E 22:28:29 42° ENE 22:32:39 10° N
USA 238 DEB 3.8 22:22:11 10° SW 22:28:51 75° NW 22:35:52 10° NE
USA 238 3.8 22:22:17 10° SW 22:28:57 75° NW 22:35:58 10° NE
Cosmos 1725 Rocket 4.1 22:27:20 41° SSE 22:29:26 62° E 22:35:40 10° NNE
Cosmos 1763 Rocket 4.3 22:24:29 10° NW 22:29:30 42° WSW 22:31:09 33° SW
Cosmos 1674 Rocket 4.0 22:28:37 10° N 22:32:48 45° ENE 22:33:13 44° E
SL-08 R/B 4.4 22:32:19 44° SSE 22:34:15 68° E 22:40:18 10° NNE
Cosmos 1536 3.1 22:34:39 53° E 22:34:39 53° E 22:38:21 10° NNE
Cosmos 1666 2.7 22:37:32 65° ENE 22:37:32 65° ENE 22:40:57 10° NNE
Cosmos 1743 4.4 22:38:17 23° ENE 22:38:17 23° ENE 22:40:50 10° NE
Cosmos 2333 Rocket 3.1 22:33:07 10° NNW 22:38:37 43° NE 22:41:18 27° ESE
Cosmos 1356 4.1 22:41:30 49° NE 22:41:30 49° NE 22:44:10 10° NNE
Cosmos 1271 Rocket 3.9 22:37:25 10° N 22:40:47 30° ENE 22:40:47 30° ENE
Meteor 1-13 Rocket 4.2 22:36:17 10° NNW 22:41:49 71° W 22:43:23 47° SSW
Cosmos 2016 Rocket 4.0 22:39:51 41° S 22:42:19 89° E 22:48:44 10° N
Cosmos 2237 Rocket 4.3 22:38:08 10° NNW 22:42:23 21° NE 22:46:37 10° E
Meteor 1-5 Rocket 4.4 22:40:38 36° SSW 22:43:11 76° WNW 22:49:10 10° N
Cosmos 2061 Rocket 3.9 22:41:22 41° S 22:43:43 90° E 22:49:56 10° N
Lacrosse 4 Rocket 3.3 22:45:23 19° E 22:45:23 19° E 22:47:11 10° ENE
MOS 1-B Rocket 3.8 22:38:53 10° NNE 22:44:39 85° WNW 22:46:43 41° SSW
Cosmos 1459 Rocket 4.3 22:42:35 30° SSW 22:45:48 64° WNW 22:52:09 10° N
Cosmos 2221 Rocket 3.7 22:41:28 10° NNW 22:45:54 66° W 22:46:29 59° SW
Okean 3 4.0 22:45:53 10° NNW 22:50:01 48° W 22:50:30 45° WSW
Cosmos 1733 Rocket 2.9 22:50:59 71° ESE 22:51:10 72° E 22:55:34 10° NNE
Cosmos 1066 Rocket 4.1 22:46:33 10° NNW 22:52:21 85° ENE 22:53:46 53° SSE
SL-27 R/B 3.4 22:53:08 41° WNW 22:53:08 41° WNW 22:56:17 10° N
Meteor 1-23 Rocket 4.2 22:48:17 10° NNW 22:54:10 85° ENE 22:55:43 51° SSE
Cosmos 1864 Rocket 4.4 22:53:22 44° S 22:55:31 87° W 23:01:49 10° N
Thor Agena Rocket 3.4 22:50:47 10° NNE 22:55:53 88° ESE 22:57:00 56° SSW
CENTAUR R/B 2.7 22:51:50 16° SW 22:56:58 77° NW 23:04:20 10° NE
Cosmos 968 Rocket 4.3 22:59:01 33° E 22:59:01 33° E 23:03:30 10° NE
Cosmos 44 3.7 22:56:34 10° NW 23:01:16 48° WSW 23:01:33 47° SW
Cosmos 1802 Rocket 4.4 22:58:41 31° SW 23:01:43 60° WNW 23:08:02 10° N
Spot 4 4.3 23:06:33 45° SW 23:07:15 48° W 23:11:56 10° NNW
Cosmos 1378 3.4 23:09:12 10° N 23:12:29 66° N 23:12:29 66° N
USA 267 4.1 23:08:01 10° ENE 23:14:18 52° N 23:20:35 10° W
Cosmos 2233 Rocket 3.9 23:14:31 49° S 23:16:23 87° E 23:22:46 10° N
Cosmos 1842 4.2 23:14:04 10° N 23:17:41 39° ENE 23:17:41 39° ENE
Cosmos 1908 Rocket 3.8 23:18:33 54° E 23:18:33 54° E 23:22:42 10° NNE
SL-16 R/B 3.7 23:20:53 10° NW 23:25:10 23° WSW 23:26:08 22° WSW
Lacrosse 5 3.3 23:21:33 10° WNW 23:24:41 24° WSW 23:24:41 24° WSW
Cosmos 2322 3.6 23:22:48 10° NNW 23:28:30 77° WSW 23:29:31 60° S
Cosmos 1378 Rocket 3.6 23:24:18 10° NNW 23:28:44 65° W 23:28:49 65° WSW
NOSS 3-2 (C) 4.2 23:23:47 10° WSW 23:29:35 52° NW 23:36:19 10° NE
Cosmos 1833 4.1 23:28:45 56° SSW 23:30:02 88° ESE 23:35:44 10° NNE
COSMOS 2487 3.4 23:32:14 46° NNE 23:32:14 46° NNE 23:34:46 10° NNE
GENESIS II 4.5 23:31:06 10° NW 23:34:38 66° NNW 23:34:38 66° NNW
Cosmos 2084 Rocket 4.2 23:35:29 37° W 23:36:44 50° NW 23:40:59 10° NE
Cosmos 2219 Rocket 2.1 23:31:20 10° NNW 23:37:04 89° ENE 23:38:19 57° SSE
EO 1 Del DPAF 4.4 23:36:19 10° N 23:39:44 34° WNW 23:39:56 33° WNW
Cosmos 1975 Rocket 3.2 23:37:42 10° N 23:42:12 63° ENE 23:42:25 62° E
Cosmos 2333 4.3 23:37:09 10° NW 23:42:53 62° WSW 23:43:44 55° SSW
Cosmos 1503 Rocket 4.2 23:45:55 54° SE 23:46:25 56° ESE 23:51:41 10° NNE
Cosmos 1242 Rocket 4.4 23:43:53 10° NW 23:46:08 23° WNW 23:46:08 23° WNW
Cosmos 2322 Rocket 3.9 23:43:30 10° WNW 23:47:20 19° W 23:48:01 18° WSW
YAOGAN 11 4.0 23:48:26 80° SSE 23:48:42 89° ENE 23:53:20 10° NNW
Helios 1A 3.0 23:49:48 73° WNW 23:49:48 73° WNW 23:53:52 10° NNW
ERBS 3.7 23:47:55 10° NW 23:51:02 36° NNE 23:51:02 36° NNE
SL-16 R/B 4.2 23:46:15 10° ESE 23:51:17 28° NE 23:56:27 10° N
SL-16 R/B 4.2 23:48:01 10° NNW 23:52:43 25° NE 23:57:23 10° E
CZ-2D R/B 4.4 23:50:14 10° NE 23:52:56 14° E 23:54:54 12° ESE
Cosmos 1486 Rocket 3.9 23:52:11 61° SW 23:53:05 81° WNW 23:58:19 10° NNE
Cosmos 1544 3.6 23:54:38 57° N 23:54:38 57° N 23:57:39 10° N
Sich 1 Rocket 4.1 23:55:30 47° E 23:55:30 47° E 23:59:44 10° NNE
